Location: Newark
(60.7728°N, 46.2261°E)
Time: 07:53:15
(UTC+00:00)

ISS - Pass Details

Date: 23 September 2019
Orbit: 411 x 421 km, 51.6° (Epoch: 23 October)

Event Time Altitude Azimuth Distance (km) Brightness Sun altitude
Rises 16:59:37 0° 225° (SW) 2,342 0.2 -15.6°
Reaches altitude 10° 17:02:22 10° 201° (SSW) 1,481 -1.1 -15.9°
Enters shadow 17:03:09 13° 188° (S) 1,323 -1.5 -16.0°
